Regional Weather Roundup
Issued by NWS Sioux Falls, SD

Home | Current Version | Previous Version | Graphics & Text | Print | Product List | Glossary On
Versions: 1 2 3 4 5 6 7 8 9 10 11 12 13 14 15 16 17 18 19 20 21 22 23 24 25 26 27 28 29 30 31 32 33 34 35 36 37 38 39 40 41 42 43 44 45 46 47 48 49 50
000
ASUS43 KFSD 310110
RWRFSD

WEATHER ROUNDUP FOR SE SOUTH DAKOTA/SW MINNESOTA/NW IOWA
NATIONAL WEATHER SERVICE SIOUX FALLS SD
800 PM CDT THU JUL 30 2015

NOTE: "FAIR" INDICATES FEW OR NO CLOUDS BELOW 12,000 FEET WITH NO
SIGNIFICANT WEATHER AND OR OBSTRUCTIONS TO VISIBILITY.


SDZ038>040-050-052>070-310200-
SOUTHEAST SOUTH DAKOTA

CITY           SKY/WX    TMP DP  RH WIND       PRES   REMARKS
BROOKINGS      CLEAR     81  61  50 SW6       30.10F
CHAMBERLAIN    CLEAR     86  46  24 CALM      30.10F
HURON          CLEAR     84  62  47 W3        30.06F
MADISON        FAIR      81  55  41 W6        30.11F
MITCHELL       CLEAR     84  64  50 E3        30.09S
SIOUX FALLS    PTCLDY    82  61  48 W3        30.09F
WINNER         FAIR      89  50  26 N5        30.12F
YANKTON        CLEAR     84  66  54 NE6       30.07S
$$

MNZ071-072-080-081-089-090-097-098-310200-
SOUTHWEST MINNESOTA

CITY           SKY/WX    TMP DP  RH WIND       PRES   REMARKS
FAIRMONT       CLEAR     81  61  50 W6        30.07S
JACKSON        CLEAR     79  64  61 W5        30.10S
LUVERNE        CLEAR     81  63  54 W5        30.10S
MARSHALL       CLEAR     79  61  53 W8        30.07F
MONTEVIDEO     CLEAR     81  61  50 W5        30.05S
PIPESTONE      CLEAR     77  64  65 W5        30.11S
REDWOOD FALLS  CLEAR     82  60  47 W7        30.03F
TRACY          CLEAR     81  64  57 W3        30.08S
WINDOM         CLEAR     79  64  61 CALM      30.08S
WORTHINGTON    CLEAR     79  64  61 W6        30.10S
$$

IAZ001>003-012>014-020>022-031-032-NEZ013-014-SDZ071-310200-
NORTHWEST IOWA

CITY           SKY/WX    TMP DP  RH WIND       PRES   REMARKS
CHEROKEE       CLEAR     80  70  70 CALM      30.09F
DENISON        HAZE      79  68  69 CALM      30.09S VSB 1/4
ESTHERVILLE    CLEAR     78  63  59 W6        30.08F
LE MARS        CLEAR     82  72  69 CALM      30.10S
ORANGE CITY    CLEAR     79  70  73 CALM      30.10F
SHELDON        CLEAR     81  70  69 W3        30.09S
SIOUX CITY     CLEAR     83  72  69 S3        30.08F
SPENCER        CLEAR     81  69  67 W5        30.09F
STORM LAKE     CLEAR     79  70  73 W5        30.11F
$$

ABBREVIATIONS USED IN REMARKS
   TC - TEMPERATURE IN CELSIUS
  WCI - WIND CHILL INDEX
   HX - HEAT INDEX
  VSB - VISIBILITY




USA.gov is the U.S. government's official web portal to all federal, state and local government web resources and services.